Погода в Липовке

Россия / Липецкая область     52°58′08″N   38°13′27″E
темп.,
°C
ветер,
м/с
пор.,
м/с
влажн.,
%
обл.,
%
осадки,
мм/ч
давл.,
гПа
погр.,
м
18 апреля, вс
вс1800:00+5зюз129196 0.0 101944
03:00+4юв22919 0.0 101816
06:00+4в229287 0.0 101831
09:00+6юв2387100 0.5 1018460
12:00+10ююз126753 0.3 1018914
15:00+11ююв3357100 0.9 10181148
18:00+10вюв3465100 0.8 1017481
21:00+9в2372100 1.2 101865
19 апреля, пн
пн1900:00+7в237993 0.1 101840
03:00+6всв348557 0.1 101860
06:00+5св228881 0.0 101829
09:00+9всв567699 0.1 1018613
12:00+9всв6674100 1.2 1018830
15:00+9св6777100 2.7 1018835
18:00+7св688997 0.2 1019678
21:00+5св5993100 0.2 1019367
20 апреля, вт
вт2000:00+6всв5992100 0.0 1018520
03:00+5всв5994100 0.0 1018423
06:00+6всв4996100 0.0 1017329
09:00+7в51095100 0.2 1017528
12:00+8в81084100 0.1 1015717
15:00+8в81286100 0.1 1012877
18:00+6всв91593100 4.1 1008937
21:00+4в102193100 15.6 10041280
21 апреля, ср
ср2100:00+7вюв111994100 1.7 999824
03:00+9ююв81494100 2.1 998724
06:00+8ююв71292100 0.5 998709
09:00+3зюз51097100 3.2 1003486
12:00+4зюз81182100 0.0 1007886
15:00+5зюз71281100 0.1 10101137
18:00+7юз5107633 0.0 10121061
21:00+6юз51178100 0.1 1015374
22 апреля, чт
чт2200:00+6юз498245 0.0 1016287
03:00+4ююз48895 0.0 1017157
06:00+3ююз48875 0.0 1019168
09:00+8ююз58685 0.0 1019514
12:00+12ююз575548 0.0 10201478
15:00+12ююз5757100 0.1 10191568
18:00+12ю476155 0.1 1019585
21:00+9ююв377699 0.1 1020144